Other Public Products
Issued by NWS Grand Forks, ND

Home | Current Version | Previous Version | Text Only | Print | Product List | Glossary Off
Versions: 1 2 3 4 5 6 7 8 9 10 11 12 13 14 15 16 17 18 19 20 21 22 23 24 25 26 27 28 29 30 31 32 33 34 35 36 37 38 39 40 41 42 43 44 45 46 47 48 49 50

000
FPUS83 KFGF 252010
OPUFGF
PRAIRIE TO PINES WEATHER ROUNDUP
NATIONAL WEATHER SERVICE EASTERN NORTH DAKOTA/GRAND FORKS ND
300 PM CDT SAT APR 25 2015

 **SATELLITE DATA USED TO AUGMENT SKY COVER AT AUTOMATED STATIONS**
 *****  WEATHER ACROSS EASTERN NORTH DAKOTA  *****

CITY           SKY/WX    TMP DP  RH WIND       PRES   REMARKS
GRAND FORKS    MOSUNNY   62  38  40 S14       29.87F
GRAND FORKS AF PTSUNNY   60  38  43 S8G21     29.88S
GRAND CITY NWS NOT AVBL
BUXTON         NOT AVBL
DEVILS LAKE    CLOUDY    52  37  58 SE20      29.86S
FARGO          CLOUDY    56  39  53 SE9       29.88S
WAHPETON ARPT  CLOUDY    52  36  54 SE14      29.88S
$$

 *****  WEATHER ACROSS CENTRAL AND WESTERN NORTH DAKOTA  *****

CITY           SKY/WX    TMP DP  RH WIND       PRES   REMARKS
JAMESTOWN      CLOUDY    47  39  74 SE14      29.86R
BISMARCK       CLOUDY    49  42  77 SE16      29.82S
MINOT          CLOUDY    56  39  53 E16       29.80S
MINOT AFB      CLOUDY    56  43  61 SE17      29.79S
GARRISON         N/A     56  41  57 SE16      29.79S
WILLISTON      CLOUDY    51  42  71 SE16      29.75S
DICKINSON      CLOUDY    48  42  80 SE18      29.74R
HETTINGER      CLOUDY    45  43  93 E15       29.76R FOG
$$

 *****  OTHER OBSERVATIONS NORTHEAST NORTH DAKOTA  *****

CITY           SKY/WX    TMP DP  RH WIND       PRES   REMARKS
WALHALLA       FAIR      59  37  44 SE18G24   29.88F
LANGDON        CLOUDY    61  37  41 SE20G28   29.87S
CAVALIER       FAIR      59  37  44 S10G23    29.88S
GRAFTON        FAIR      63  37  39 SE12G21   29.88F
CANDO          CLOUDY    54  37  54 SE16G22   29.87R
FORT TOTTEN      N/A     55  40  58 SE10      29.95S
ROLLA          CLOUDY    54  37  54 SE16      29.87R
RUGBY          NOT AVBL
 ***** THE ABOVE OBSERVATIONS ARE NON NWS ARE NOT QUALITY
        CONTROLLED AND MAY MIS-REPORT RAIN FOR SNOW...
$$

 *****  OTHER OBSERVATIONS SOUTHEAST NORTH DAKOTA *****

CITY           SKY/WX    TMP DP  RH WIND       PRES   REMARKS
COOPERSTOWN    NOT AVBL
VALLEY CITY    CLOUDY    48  43  81 SE10      29.87S
OAKES            N/A     45  45 100 E13       29.86S
GWINNER        CLOUDY    46  45  93 E12       29.88R
SHEYENNE NWR     N/A     50  40  69 E10       29.95S
BUFFALO        NOT AVBL
WYNDMERE       NOT AVBL
 ***** THE ABOVE OBSERVATIONS ARE NON NWS ARE NOT QUALITY
       CONTROLLED AND MAY MIS-REPORT RAIN FOR SNOW...
$$

  *****  WEATHER ACROSS NORTHERN MINNESOTA  *****

CITY           SKY/WX    TMP DP  RH WIND       PRES   REMARKS
FLAG ISLAND    SUNNY     54  27  35 SE9       29.95S
WARROAD        SUNNY     54  30  40 NE16      29.95S
ROSEAU         SUNNY     61  30  31 NE18      29.92S
HALLOCK        MOSUNNY   64  30  27 E13G22    29.88S
THF RVR FALLS  MOSUNNY   61  34  36 SE12G22   29.89F
HALSTAD        NOT AVBL
FOSSTON        SUNNY     63  34  34 SE9G18    29.90R
BAUDETTE       SUNNY     59  28  30 SE13G22   29.94F
WASKISH        SUNNY     63  34  34 CALM      29.92S
CROOKSTON      SUNNY     61  36  39 SE9G16    29.88S
$$
  *****  WEATHER ACROSS CENTRAL AND WEST MINNESOTA  *****

CITY           SKY/WX    TMP DP  RH WIND       PRES   REMARKS
BEMIDJI        SUNNY     55  31  39 E13G20    29.91F
PARK RAPIDS    SUNNY     59  28  30 E15G21    29.89S
WADENA         SUNNY     55  36  47 E12G17    29.88R
DETROIT LAKES  SUNNY     57  36  44 SE14      29.88S
MOORHEAD       PTSUNNY   55  37  50 SE10G20   29.89S
FERGUS FALLS   PTSUNNY   55  36  47 SE12      29.88S
ELBOW LAKE     CLOUDY    53  40  61 SE10      29.87S
MORRIS MN      PTSUNNY   55  43  62 E13       29.85S
STAPLES        SUNNY     55  34  44 NE9G16    29.89S
WHEATON        MOSUNNY   48  43  81 E10       29.89S
$$
  *****  WEATHER ELSEWHERE ACROSS MINNESOTA  *****

CITY           SKY/WX    TMP DP  RH WIND       PRES   REMARKS
DULUTH         MOSUNNY   49  24  37 E18       29.96S
INTRNTL FALLS  SUNNY     55  26  32 NE13      29.97S
ELY            PTSUNNY   52  14  22 NE8       29.95F
CLOQUET        SUNNY     48  25  40 E13G22    29.95S
BRAINERD       SUNNY     54  32  43 E6G16     29.91S
HIBBING        FAIR      56  23  27 E8        29.94F
ALEXANDRIA     CLOUDY    54  39  57 E16       29.88R
SAINT CLOUD    MOSUNNY   57  35  43 N10       29.87R
MINNEAPOLIS    MOSUNNY   59  34  39 E17       29.83S
$$

  *****  WEATHER ACROSS SOUTH DAKOTA  *****

CITY           SKY/WX    TMP DP  RH WIND       PRES   REMARKS
SIOUX FALLS    CLOUDY    59  43  55 E17G24    29.78R
BROOKINGS      CLOUDY    54  43  66 E14       29.81R
WATERTOWN      CLOUDY    49  41  74 E14       29.83R
HURON          CLOUDY    62  45  53 SE13G20   29.78S
SISSETON         N/A     47  42  83 E9        29.86S
ABERDEEN       CLOUDY    47  43  86 E13       29.84R FOG
MITCHELL       CLOUDY    57  48  72 E10       29.78S
PIERRE         CLOUDY    53  48  83 SE12      29.76S
MOBRIDGE       CLOUDY    52  44  74 SE10      29.77R
RAPID CITY     CLOUDY    51  46  83 SE13      29.70F
$$

  *****  SOME WEATHER IN NEARBY STATES *****

CITY           SKY/WX    TMP DP  RH WIND       PRES   REMARKS
GLASGOW MT     RAIN      43  41  93 NW10      29.73R FOG
GREAT FALLS MT CLOUDY    50  27  40 N7        29.80S
CHEYENNE WY    PTSUNNY   61  29  29 SW13      29.73F
SCOTTSBLUFF NE PTSUNNY   71  37  28 NW9       29.68F
OMAHA NE       CLOUDY    52  46  80 N12       29.70S
DES MOINES IA  CLOUDY    49  44  83 NE16      29.69R
DAVENPORT IA   CLOUDY    50  43  77 NE22G28   29.68R
CHICAGO IL     CLOUDY    46  42  86 E16G22    29.73F
EAU CLAIRE WI  MOSUNNY   59  19  21 E16G24    29.83F
LA CROSSE WI   CLOUDY    56  34  43 E13G21    29.82R
$$

  *****  SOME NATIONAL WEATHER *****

CITY           SKY/WX    TMP DP  RH WIND       PRES   REMARKS
LA GUARDIA NY  MOSUNNY   58  22  24 W10       29.72F
RALEIGH NC     LGT RAIN  56  55  97 CALM      29.74F FOG
ATLANTA GA     CLOUDY    77  65  66 W10G20    29.72F
NEW ORLEANS LA LGT RAIN  71  66  84 N8        29.84F
OKLAHOMA CITY  SUNNY     82  50  32 SW13      29.64F
ALBUQUERQUE NM PTSUNNY   64  31  28 S5        29.87F
SALT LAKE CITY CLOUDY    58  38  47 S9        29.70F
LOS ANGELES CA CLOUDY    61  55  81 W20G28    29.97F
BOISE ID       PTSUNNY   58  27  30 NW14G29   29.78F
SEATTLE WA     PTSUNNY   54  36  50 SW8       29.99S
$$

*** WEATHER ACROSS MANITOBA...SASKATCHEWAN AND ONTARIO ***
                ***ONTARIO***

CITY           SKY/WX    TMP DP  RH WIND       PRES   REMARKS
GERALDTON      MOSUNNY   46  18  31 NE5       30.02F
THUNDER BAY    SUNNY     48  14  25 E10       30.03F
SIOUX LOOKOUT  MOSUNNY   52  19  28 VRB6      30.01F
TORONTO        MOSUNNY   52  28  40 NE7       29.82F
BIG TROUT LK   SUNNY     37  23  56 S6        30.14F
PICKLE LAKE    MOSUNNY   46  12  25 NE9       30.06F
DRYDEN         SUNNY     52  21  30 E5        30.00F
KENORA         SUNNY     55  30  38 SE12      29.98S
$$
                *** MANITOBA***

CITY           SKY/WX    TMP DP  RH WIND       PRES   REMARKS
BRANDON        PTSUNNY   61  39  44 E15       29.87S
DAUPHIN        PTSUNNY   57  37  47 E18       29.90F
ISLAND LAKE    MOSUNNY   54  21  28 SE8       30.08S
PILOT MOUND      N/A     57  37  47 SE15G21     N/A
THE PAS        CLOUDY    32  28  86 N9        30.07R WCI  24
THOMPSON       FLURRIES  32  28  86 N5        30.12S
WINNIPEG       PTSUNNY   61  36  39 SE17      29.93S
LYNN LAKE      SUNNY     39   9  28 NW7       30.11R
CHURCHILL      FLURRIES  30  14  51 SE14      30.23F WCI  20
GILLAM         CLOUDY    46  16  29 E7        30.12F
$$
                ***SASKATCHEWAN***

CITY           SKY/WX    TMP DP  RH WIND       PRES   REMARKS
ESTEVAN        CLOUDY    48  41  76 SE16G22   29.80S
KINDERSLEY     CLOUDY    32  28  86 NE13      29.87R WCI  22
LLOYDMINSTER   CLOUDY    34  19  55 NE12G18   29.96S
PRINCE ALBERT  LGT SNOW  34  28  80 NE16      29.99R WCI  23
REGINA         CLOUDY    46  43  87 E20G29    29.77F



USA.gov is the U.S. government's official web portal to all federal, state and local government web resources and services.